TimeMST,TemperatureF,Dew PointF,Humidity,Sea Level PressureIn,VisibilityMPH,Wind Direction,Wind SpeedMPH,Gust SpeedMPH,PrecipitationIn,Events,Conditions,WindDirDegrees,DateUTC
12:15 AM,6.8,5.0,92,30.56,10.0,South,4.6,-,N/A,,Clear,190,2013-01-03 07:15:00
12:35 AM,6.8,5.0,92,30.56,10.0,South,3.5,-,N/A,,Clear,190,2013-01-03 07:35:00
12:55 AM,6.8,5.0,92,30.56,10.0,Calm,Calm,-,N/A,,Clear,0,2013-01-03 07:55:00
1:15 AM,6.8,5.0,92,30.55,10.0,SE,4.6,-,N/A,,Clear,130,2013-01-03 08:15:00
1:35 AM,6.8,5.0,92,30.55,10.0,ESE,4.6,-,N/A,,Clear,120,2013-01-03 08:35:00
1:55 AM,8.6,5.0,85,30.54,10.0,SE,4.6,-,N/A,,Clear,130,2013-01-03 08:55:00
2:15 AM,8.6,5.0,85,30.54,10.0,SE,4.6,-,N/A,,Clear,130,2013-01-03 09:15:00
2:35 AM,6.8,5.0,92,30.54,10.0,SE,5.8,-,N/A,,Clear,130,2013-01-03 09:35:00
2:55 AM,6.8,3.2,85,30.54,10.0,SE,4.6,-,N/A,,Clear,130,2013-01-03 09:55:00
3:15 AM,6.8,3.2,85,30.54,10.0,SE,4.6,-,N/A,,Clear,130,2013-01-03 10:15:00
3:35 AM,6.8,1.4,79,30.53,10.0,SE,5.8,-,N/A,,Clear,130,2013-01-03 10:35:00
3:55 AM,6.8,1.4,79,30.52,10.0,ESE,5.8,-,N/A,,Clear,120,2013-01-03 10:55:00
4:15 AM,6.8,1.4,79,30.52,10.0,SE,5.8,-,N/A,,Clear,140,2013-01-03 11:15:00
4:35 AM,6.8,1.4,79,30.51,10.0,SE,5.8,-,N/A,,Clear,130,2013-01-03 11:35:00
4:55 AM,6.8,1.4,79,30.51,10.0,SE,3.5,-,N/A,,Clear,140,2013-01-03 11:55:00
5:15 AM,6.8,1.4,79,30.51,10.0,SSE,3.5,-,N/A,,Clear,150,2013-01-03 12:15:00
5:35 AM,5.0,3.2,92,30.52,10.0,West,3.5,-,N/A,,Clear,270,2013-01-03 12:35:00
5:55 AM,5.0,1.4,85,30.52,10.0,SSW,5.8,-,N/A,,Clear,200,2013-01-03 12:55:00
6:15 AM,6.8,1.4,79,30.52,10.0,South,4.6,-,N/A,,Clear,170,2013-01-03 13:15:00
6:35 AM,5.0,1.4,85,30.53,10.0,South,3.5,-,N/A,,Clear,170,2013-01-03 13:35:00
6:55 AM,5.0,1.4,85,30.53,10.0,Calm,Calm,-,N/A,,Clear,0,2013-01-03 13:55:00
7:15 AM,5.0,1.4,85,30.52,9.0,Calm,Calm,-,N/A,,Clear,0,2013-01-03 14:15:00
7:35 AM,5.0,1.4,85,30.52,8.0,Calm,Calm,-,N/A,,Clear,0,2013-01-03 14:35:00
7:55 AM,5.0,1.4,85,30.52,7.0,Calm,Calm,-,N/A,,Clear,0,2013-01-03 14:55:00
8:15 AM,5.0,1.4,85,30.52,7.0,Calm,Calm,-,N/A,,Clear,0,2013-01-03 15:15:00
8:35 AM,5.0,1.4,85,30.52,7.0,Calm,Calm,-,N/A,,Clear,0,2013-01-03 15:35:00
8:55 AM,6.8,1.4,79,30.52,7.0,Calm,Calm,-,N/A,,Clear,0,2013-01-03 15:55:00
9:15 AM,6.8,1.4,79,30.53,7.0,Calm,Calm,-,N/A,,Clear,0,2013-01-03 16:15:00
9:35 AM,6.8,1.4,79,30.54,8.0,Calm,Calm,-,N/A,,Clear,0,2013-01-03 16:35:00
9:55 AM,8.6,1.4,73,30.54,10.0,SSE,3.5,-,N/A,,Clear,160,2013-01-03 16:55:00
10:15 AM,8.6,1.4,73,30.55,9.0,SW,6.9,-,N/A,,Clear,220,2013-01-03 17:15:00
10:55 AM,8.6,1.4,73,30.55,9.0,SSW,4.6,-,N/A,,Clear,200,2013-01-03 17:55:00
11:15 AM,10.4,1.4,67,30.55,9.0,South,3.5,-,N/A,,Clear,170,2013-01-03 18:15:00
11:35 AM,10.4,3.2,73,30.54,9.0,SE,3.5,-,N/A,,Clear,140,2013-01-03 18:35:00
11:55 AM,12.2,3.2,67,30.53,9.0,Calm,Calm,-,N/A,,Clear,0,2013-01-03 18:55:00
12:15 PM,14.0,5.0,67,30.52,9.0,ESE,4.6,-,N/A,,Clear,120,2013-01-03 19:15:00
12:35 PM,15.8,5.0,62,30.51,9.0,SE,3.5,-,N/A,,Clear,130,2013-01-03 19:35:00
12:55 PM,15.8,5.0,62,30.51,10.0,Calm,Calm,-,N/A,,Clear,0,2013-01-03 19:55:00
1:15 PM,15.8,6.8,68,30.49,10.0,Calm,Calm,-,N/A,,Clear,0,2013-01-03 20:15:00
1:35 PM,19.4,6.8,58,30.48,10.0,East,3.5,-,N/A,,Clear,100,2013-01-03 20:35:00
1:55 PM,17.6,6.8,63,30.48,10.0,East,4.6,-,N/A,,Clear,100,2013-01-03 20:55:00
2:15 PM,19.4,6.8,58,30.47,10.0,West,5.8,-,N/A,,Clear,260,2013-01-03 21:15:00
2:35 PM,17.6,6.8,63,30.47,9.0,West,3.5,-,N/A,,Clear,260,2013-01-03 21:35:00
2:55 PM,17.6,6.8,63,30.47,9.0,WSW,5.8,-,N/A,,Clear,250,2013-01-03 21:55:00
3:15 PM,15.8,6.8,68,30.47,9.0,WNW,4.6,-,N/A,,Clear,290,2013-01-03 22:15:00
3:35 PM,15.8,6.8,68,30.47,9.0,West,5.8,-,N/A,,Clear,260,2013-01-03 22:35:00
3:55 PM,15.8,6.8,68,30.47,8.0,West,4.6,-,N/A,,Clear,270,2013-01-03 22:55:00
4:15 PM,15.8,6.8,68,30.47,9.0,WSW,5.8,-,N/A,,Clear,240,2013-01-03 23:15:00
4:35 PM,15.8,6.8,68,30.48,10.0,WSW,5.8,-,N/A,,Clear,240,2013-01-03 23:35:00
4:55 PM,15.8,6.8,68,30.48,10.0,WSW,4.6,-,N/A,,Clear,240,2013-01-03 23:55:00
5:15 PM,14.0,6.8,73,30.48,10.0,Calm,Calm,-,N/A,,Clear,0,2013-01-04 00:15:00
5:55 PM,14.0,6.8,73,30.48,10.0,West,3.5,-,N/A,,Clear,280,2013-01-04 00:55:00
6:15 PM,14.0,8.6,79,30.48,10.0,Calm,Calm,-,N/A,,Clear,0,2013-01-04 01:15:00
6:55 PM,10.4,6.8,85,30.49,7.0,Calm,Calm,-,N/A,,Clear,0,2013-01-04 01:55:00
7:15 PM,8.6,6.8,92,30.49,6.0,Calm,Calm,-,N/A,,Clear,0,2013-01-04 02:15:00
7:35 PM,8.6,5.0,85,30.48,7.0,Calm,Calm,-,N/A,,Clear,0,2013-01-04 02:35:00
7:55 PM,6.8,5.0,92,30.49,6.0,Calm,Calm,-,N/A,,Clear,0,2013-01-04 02:55:00
8:15 PM,6.8,6.8,100,30.49,6.0,Calm,Calm,-,N/A,,Clear,0,2013-01-04 03:15:00
8:35 PM,6.8,5.0,92,30.49,7.0,Calm,Calm,-,N/A,,Clear,0,2013-01-04 03:35:00
8:55 PM,6.8,5.0,92,30.50,6.0,Calm,Calm,-,N/A,,Clear,0,2013-01-04 03:55:00
9:15 PM,6.8,6.8,100,30.50,6.0,Calm,Calm,-,N/A,,Clear,0,2013-01-04 04:15:00
9:35 PM,6.8,5.0,92,30.51,6.0,Calm,Calm,-,N/A,,Clear,0,2013-01-04 04:35:00
9:55 PM,5.0,5.0,100,30.51,5.0,Calm,Calm,-,N/A,,Clear,0,2013-01-04 04:55:00
10:15 PM,5.0,5.0,100,30.52,5.0,Calm,Calm,-,N/A,,Clear,0,2013-01-04 05:15:00
10:35 PM,5.0,3.2,92,30.52,5.0,Calm,Calm,-,N/A,,Clear,0,2013-01-04 05:35:00
10:55 PM,1.4,1.4,100,30.52,5.0,SE,3.5,-,N/A,,Clear,130,2013-01-04 05:55:00
11:15 PM,1.4,1.4,100,30.52,5.0,Calm,Calm,-,N/A,,Clear,0,2013-01-04 06:15:00
11:35 PM,1.4,1.4,100,30.53,5.0,Calm,Calm,-,N/A,,Clear,0,2013-01-04 06:35:00